Regional Weather Roundup
Issued by NWS

Home | Current Version | Previous Version | Graphics & Text | Print | Product List | Glossary On
Versions: 1 2 3 4 5 6 7 8 9 10 11 12 13 14 15 16 17 18 19 20 21 22 23 24 25 26 27 28 29 30 31 32 33 34 35 36 37 38 39 40 41 42 43 44 45 46 47 48 49 50
000
ASUS43 KOAX 210710
RWRNE

WEATHER ROUNDUP FOR NEBRASKA
NATIONAL WEATHER SERVICE OMAHA NE
200 AM CDT MON MAY 21 2018

NOTES: SATELLITE DATA IS BEING USED TO AUGMENT CLOUD COVER ABOVE
       12000 FEET.
       "FAIR" INDICATES FEW OR NO CLOUDS BELOW 12,000 FEET WITH NO
       SIGNIFICANT WEATHER AND/OR OBSTRUCTIONS TO VISIBILITY.


NEZ001>004-019>022-054>056-210800-
NEBRASKA PANHANDLE

CITY           SKY/WX    TMP DP  RH WIND       PRES   REMARKS
SCOTTSBLUFF    CLEAR     48  46  93 SE7       30.07S
ALLIANCE       CLEAR     41  41 100 SE7       30.06F
CHADRON        PTCLDY    43  39  86 CALM      30.05F
GORDON         FAIR      45  39  79 CALM      30.07F
KIMBALL        CLEAR     44  44  98 S8        30.09F
SIDNEY         CLEAR     44  43  96 S9        30.10F
$$

NEZ057>060-069>072-079>082-210800-
SOUTHWEST NEBRASKA

CITY           SKY/WX    TMP DP  RH WIND       PRES   REMARKS
NORTH PLATTE   CLEAR     49  48  97 SE5       30.10R FOG
IMPERIAL       CLEAR     48  46  93 S3        30.11S
LEXINGTON      FOG       46  45  97 CALM      30.09F VSB 1/4
MCCOOK         CLEAR     50  50 100 SW8       30.11R
OGALLALA       CLEAR     46  44  94 CALM      30.11S
$$

NEZ005>010-023>029-035>040-094-210800-
NORTH CENTRAL NEBRASKA

CITY           SKY/WX    TMP DP  RH WIND       PRES   REMARKS
VALENTINE      CLOUDY    52  49  89 CALM      30.07F
AINSWORTH      CLOUDY    51  50  95 CALM      30.08F
BROKEN BOW     CLEAR     48  47  96 CALM      30.08F
O`NEILL        CLOUDY    55  53  92 CALM      30.09F
ORD            PTCLDY    47  47 100 S3        30.07F FOG
THEDFORD       CLEAR     47  46  96 SW5       30.10S
$$

NEZ041-046>049-061>064-073>077-083>087-210800-
SOUTH CENTRAL NEBRASKA

CITY           SKY/WX    TMP DP  RH WIND       PRES   REMARKS
GRAND ISLAND   FOG       48  48 100 CALM      30.09F VSB 1/4
AURORA         CLOUDY    52  52 100 CALM      30.08F
HASTINGS       CLOUDY    51  50  96 CALM      30.10F FOG
HEBRON         CLOUDY    54  52  94 N3        30.08F
HOLDREGE       FOG       45  45 100 CALM      30.09F VSB 1/4
KEARNEY        CLOUDY    52  51  97 CALM      30.10F
YORK           CLOUDY    54  54 100 NW6       30.08F
$$

NEZ011>018-030>034-042>045-210800-
NORTHEAST NEBRASKA

CITY           SKY/WX    TMP DP  RH WIND       PRES   REMARKS
NORFOLK        CLOUDY    52  52 100 NW5       30.07F
ALBION         CLOUDY    53  51  95 CALM      30.08F
BLAIR          FOG       56  55  99 W6        30.05S VSB 1/2
COLUMBUS       CLOUDY    54  52  94 W7        30.08F
FREMONT        CLOUDY    55  55  99 NW6       30.06F FOG
TEKAMAH        CLOUDY    56  56 100 NW7       30.05S FOG
WAYNE          CLOUDY    53  51  95 N3        30.07F FOG
$$

NEZ050>053-065>068-078-088>093-210800-
SOUTHEAST NEBRASKA

CITY           SKY/WX    TMP DP  RH WIND       PRES   REMARKS
LINCOLN        CLOUDY    54  53  97 NW5       30.07F
OMAHA EPPLEY   CLOUDY    58  56  93 W6        30.05S
BEATRICE       CLOUDY    55  54  95 NW8       30.07F FOG
FALLS CITY     CLOUDY    58  54  86 NW12      30.04F
NEBRASKA CITY  CLOUDY    56  56 100 NW8       30.05F FOG
PLATTSMOUTH    CLOUDY    56  55  97 NW8       30.05S FOG
$$

NEZ044-045-051>053-067-210800-
OMAHA AREA

CITY           SKY/WX    TMP DP  RH WIND       PRES   REMARKS
OMAHA EPPLEY   CLOUDY    58  56  93 W6        30.05S
BLAIR          FOG       56  55  99 W6        30.05S VSB 1/2
FREMONT        CLOUDY    55  55  99 NW6       30.06F FOG
MILLARD        CLOUDY    57  55  95 NW6       30.06S FOG
OFFUTT AFB     CLOUDY    57  57 100 W8        30.04S
PLATTSMOUTH    CLOUDY    56  55  97 NW8       30.05S FOG
WAHOO          CLOUDY    55  53  93 NW7       30.06F FOG
$$



USA.gov is the U.S. government's official web portal to all federal, state and local government web resources and services.